GW6938 Weather Reports


time (UTC)temp
F
wind
direction
speed
knots
gust
knots
rain 1hr
in
rain 24hr
in
rain mn
in
humidity
%
barometer
mb
20260507093511 47 217 1.7 7.0 0.00 0.00 0.00 69 1013.1
20260507093018 46 275 2.6 7.0 0.00 0.00 0.00 69 1013.2
20260507092508 46 235 1.7 5.2 0.00 0.00 0.00 68 1013.2
20260507092006 46 241 1.7 5.2 0.00 0.00 0.00 68 1013.2
20260507091506 46 147 1.7 7.0 0.00 0.00 0.00 68 1013.3
20260507091011 46 231 2.6 7.0 0.00 0.00 0.00 68 1013.3
20260507090507 46 252 2.6 7.0 0.00 0.00 0.00 67 1013.4
20260507090008 46 265 2.6 7.0 0.00 0.00 0.00 67 1013.5
20260507085504 46 244 1.7 3.5 0.00 0.00 0.00 67 1013.5
20260507085005 46 229 1.7 4.3 0.00 0.00 0.00 67 1013.6
20260507084520 46 265 1.7 4.3 0.00 0.00 0.00 66 1013.6
20260507084004 46 246 0.0 6.1 0.00 0.00 0.00 66 1013.7
20260507083504 46 240 1.7 6.1 0.00 0.00 0.00 66 1013.7
20260507083018 45 265 0.9 3.5 0.00 0.00 0.00 65 1013.7
20260507082507 45 269 0.9 3.5 0.00 0.00 0.00 64 1013.8
20260507082002 46 244 0.9 3.5 0.00 0.00 0.00 64 1013.9
20260507081522 46 292 0.9 5.2 0.00 0.00 0.00 63 1013.9
20260507081004 46 252 0.0 4.3 0.00 0.00 0.00 62 1014.0
20260507080508 46 252 0.0 5.2 0.00 0.00 0.00 62 1014.0
20260507080020 46 250 1.7 4.3 0.00 0.00 0.00 62 1014.0
20260507075504 46 233 1.7 4.3 0.00 0.00 0.00 61 1014.1
20260507075003 46 277 1.7 4.3 0.00 0.00 0.00 60 1014.2
20260507074510 46 229 1.7 4.3 0.00 0.00 0.00 60 1014.2
20260507074006 46 260 0.9 3.5 0.00 0.00 0.00 60 1014.2
20260507073505 45 280 0.9 4.3 0.00 0.00 0.00 60 1014.3
20260507073013 45 260 1.7 4.3 0.00 0.00 0.00 60 1014.3
20260507072505 45 252 0.9 3.5 0.00 0.00 0.00 60 1014.4
20260507072009 45 260 0.0 3.5 0.00 0.00 0.00 59 1014.4
20260507071511 45 248 0.9 3.5 0.00 0.00 0.00 59 1014.5
20260507071007 45 235 0.9 2.6 0.00 0.00 0.00 57 1014.5
20260507070504 45 237 0.0 4.3 0.00 0.00 0.00 57 1014.7
20260507070025 45 237 0.9 4.3 0.00 0.00 0.00 56 1014.7
20260507065508 45 252 0.9 2.6 0.00 0.00 0.00 57 1014.8
20260507065005 44 248 0.0 3.5 0.00 0.00 0.00 57 1014.9
20260507064526 44 246 0.0 3.5 0.00 0.00 0.00 58 1015.0
20260507064005 42 240 0.9 3.5 0.00 0.00 0.00 60 1015.0
20260507063506 42 217 0.0 1.7 0.00 0.00 0.00 61 1015.0
20260507063025 42 195 0.0 1.7 0.00 0.00 0.00 61 1015.1
20260507062505 42 195 0.0 0.9 0.00 0.00 0.00 60 1015.2
20260507062004 42 195 0.0 0.9 0.00 0.00 0.00 60 1015.1
20260507061520 43 195 0.0 0.0 0.00 0.00 0.00 59 1015.2
20260507061005 43 195 0.0 0.0 0.00 0.00 0.00 58 1015.3
20260507060506 43 195 0.0 0.0 0.00 0.00 0.00 59 1015.4
20260507060035 43 195 0.0 0.0 0.00 0.00 0.00 58 1015.4
20260507055504 44 195 0.0 0.9 0.00 0.00 0.00 57 1015.4
20260507055011 44 195 0.0 0.9 0.00 0.00 0.00 57 1015.4
20260507054517 45 194 0.0 1.7 0.00 0.00 0.00 57 1015.4
20260507054009 45 195 0.0 2.6 0.00 0.00 0.00 56 1015.4
20260507053507 45 195 0.9 2.6 0.00 0.00 0.00 55 1015.4
20260507053014 45 169 1.7 2.6 0.00 0.00 0.00 55 1015.2
20260507052504 45 174 0.9 2.6 0.00 0.00 0.00 55 1015.2
20260507052006 45 190 0.9 1.7 0.00 0.00 0.00 55 1015.3
20260507051514 45 191 0.9 1.7 0.00 0.00 0.00 55 1015.4
20260507051006 45 191 0.9 1.7 0.00 0.00 0.00 54 1015.5
20260507050504 45 191 0.9 1.7 0.00 0.00 0.00 54 1015.4
20260507050023 45 191 0.9 1.7 0.00 0.00 0.00 54 1015.5
20260507045506 45 191 0.9 1.7 0.00 0.00 0.00 54 1015.4
20260507045007 45 191 0.9 1.7 0.00 0.00 0.00 53 1015.4
20260507044522 45 191 0.9 1.7 0.00 0.00 0.00 53 1015.5
20260507044008 45 191 0.9 1.7 0.00 0.00 0.00 52 1015.6
20260507043505 46 191 0.9 1.7 0.00 0.00 0.00 52 1015.6
20260507043024 46 191 0.9 2.6 0.00 0.00 0.00 52 1015.6
20260507042506 46 191 1.7 2.6 0.00 0.00 0.00 52 1015.6
20260507042009 46 193 1.7 2.6 0.00 0.00 0.00 52 1015.7
20260507041510 46 193 1.7 2.6 0.00 0.00 0.00 52 1015.7
20260507041007 46 202 0.9 2.6 0.00 0.00 0.00 51 1015.7
20260507040506 46 207 0.9 2.6 0.00 0.00 0.00 51 1015.7
20260507040018 46 207 1.7 2.6 0.00 0.00 0.00 50 1015.7
20260507035506 46 209 1.7 2.6 0.00 0.00 0.00 49 1015.8
20260507035008 46 211 1.7 2.6 0.00 0.00 0.00 49 1015.8
20260507034531 46 213 1.7 2.6 0.00 0.00 0.00 49 1015.8
20260507034013 46 217 1.7 1.7 0.00 0.00 0.00 48 1015.9
20260507033512 46 252 1.7 1.7 0.00 0.00 0.00 48 1015.9
20260507033016 46 280 1.7 1.7 0.00 0.00 0.00 47 1015.9
20260507032508 47 322 0.9 1.7 0.00 0.00 0.00 46 1015.9
20260507032013 47 325 0.9 0.9 0.00 0.00 0.00 46 1015.9
20260507031514 47 324 0.0 0.9 0.00 0.00 0.00 45 1015.9
20260507031007 47 325 0.0 0.9 0.00 0.00 0.00 45 1015.9
20260507030508 48 325 0.0 1.7 0.00 0.00 0.00 45 1015.9
20260507030016 48 325 0.0 1.7 0.00 0.00 0.00 44 1015.9
20260507025506 49 324 0.0 1.7 0.00 0.00 0.00 43 1015.9
20260507025008 49 325 0.0 1.7 0.00 0.00 0.00 42 1015.9
20260507024525 49 325 0.9 1.7 0.00 0.00 0.00 41 1015.9
20260507024009 50 325 0.0 0.0 0.00 0.00 0.00 39 1015.8
20260507023505 50 325 0.0 0.0 0.00 0.00 0.00 39 1015.8
20260507023025 50 324 0.0 0.0 0.00 0.00 0.00 38 1015.8
20260507022507 51 324 0.0 0.0 0.00 0.00 0.00 39 1015.8
20260507022013 51 324 0.0 0.0 0.00 0.00 0.00 38 1015.7
20260507021526 51 325 0.0 0.0 0.00 0.00 0.00 38 1015.8
20260507021005 52 325 0.0 0.0 0.00 0.00 0.00 37 1015.8
20260507020509 52 325 0.0 0.0 0.00 0.00 0.00 36 1015.8
20260507020030 53 325 0.0 0.0 0.00 0.00 0.00 36 1015.8
20260507015506 53 325 0.0 0.0 0.00 0.00 0.00 36 1015.7
20260507015007 54 324 0.0 1.7 0.00 0.00 0.00 35 1015.7
20260507014516 54 325 0.0 1.7 0.00 0.00 0.00 35 1015.8
20260507014006 55 324 0.0 1.7 0.00 0.00 0.00 34 1015.7
20260507013505 55 324 0.0 0.9 0.00 0.00 0.00 32 1015.7
20260507013036 56 325 0.0 1.7 0.00 0.00 0.00 32 1015.7
20260507012508 56 324 0.0 1.7 0.00 0.00 0.00 31 1015.6
20260507012010 56 325 0.0 1.7 0.00 0.00 0.00 30 1015.6
20260507011518 57 325 0.0 2.6 0.00 0.00 0.00 29 1015.7
20260507011007 57 325 0.9 2.6 0.00 0.00 0.00 29 1015.7
20260507010507 58 328 0.0 4.3 0.00 0.00 0.00 28 1015.7
20260507010034 58 320 0.9 5.2 0.00 0.00 0.00 28 1015.7
20260507005513 58 302 2.6 5.2 0.00 0.00 0.00 28 1015.7
20260507005007 58 7 0.0 3.5 0.00 0.00 0.00 27 1015.7
20260507004526 58 21 0.9 5.2 0.00 0.00 0.00 26 1015.7
20260507004008 59 325 2.6 5.2 0.00 0.00 0.00 26 1015.8
20260507003507 59 338 1.7 8.7 0.00 0.00 0.00 26 1015.7
20260507003022 59 317 4.3 8.7 0.00 0.00 0.00 26 1015.8
20260507002509 59 340 0.9 4.3 0.00 0.00 0.00 26 1015.8
20260507002009 60 353 0.9 4.3 0.00 0.00 0.00 27 1015.8
20260507001529 60 305 2.6 6.1 0.00 0.00 0.00 25 1016.0
20260507001012 61 316 3.5 7.0 0.00 0.00 0.00 25 1015.9
20260507000507 61 286 1.7 7.8 0.00 0.00 0.00 1016.0
20260507000026 61 285 2.6 9.6 0.00 0.00 0.00 25 1016.1
20260506235503 61 315 2.6 9.6 0.00 0.00 0.00 25 1016.1
20260506235007 61 282 4.3 9.6 0.00 0.00 0.00 25 1016.1
20260506234530 61 279 3.5 9.6 0.00 0.00 0.00 25 1016.3
20260506234006 61 296 3.5 9.6 0.00 0.00 0.00 25 1016.3
20260506233503 61 315 4.3 9.6 0.00 0.00 0.00 26 1016.3
20260506233017 61 314 4.3 8.7 0.00 0.00 0.00 25 1016.2
20260506232502 62 298 3.5 8.7 0.00 0.00 0.00 24 1016.2
20260506232004 61 342 1.7 4.3 0.00 0.00 0.00 25 1016.3
20260506231516 61 298 1.7 8.7 0.00 0.00 0.00 25 1016.3
20260506231002 61 321 2.6 10.4 0.00 0.00 0.00 26 1016.4
20260506230504 61 333 2.6 10.4 0.00 0.00 0.00 25 1016.5
20260506230004 61 327 5.2 9.6 0.00 0.00 0.00 25 1016.5
20260506225503 62 297 4.3 9.6 0.00 0.00 0.00 26 1016.5
20260506225004 62 280 4.3 9.6 0.00 0.00 0.00 25 1016.5
20260506224509 61 302 2.6 10.4 0.00 0.00 0.00 27 1016.4
20260506224003 61 304 4.3 10.4 0.00 0.00 0.00 25 1016.5
20260506223505 62 327 3.5 13.9 0.00 0.00 0.00 26 1016.5
20260506223010 62 319 6.1 13.9 0.00 0.00 0.00 26 1016.6
20260506222506 62 30 3.5 13.0 0.00 0.00 0.00 28 1016.6
20260506222007 62 322 7.8 13.0 0.00 0.00 0.00 25 1016.7
20260506221508 62 323 5.2 12.2 0.00 0.00 0.00 26 1016.7
20260506221007 62 317 6.1 12.2 0.00 0.00 0.00 27 1016.8
20260506220507 62 343 6.1 14.8 0.00 0.00 0.00 25 1016.8
20260506220012 62 15 7.0 14.8 0.00 0.00 0.00 26 1016.8
20260506215504 62 354 6.1 9.6 0.00 0.00 0.00 28 1016.8
20260506215005 62 3 3.5 11.3 0.00 0.00 0.00 28 1016.9
20260506214507 62 350 5.2 13.9 0.00 0.00 0.00 26 1017.1
20260506214004 61 304 5.2 13.9 0.00 0.00 0.00 28 1017.0
20260506213506 61 7 7.8 15.6 0.00 0.00 0.00 26 1017.1
20260506213012 61 304 7.8 15.6 0.00 0.00 0.00 27 1017.1
20260506212506 61 327 7.8 12.2 0.00 0.00 0.00 27 1017.1
20260506212004 61 279 4.3 11.3 0.00 0.00 0.00 28 1017.2
20260506211525 61 299 3.5 7.8 0.00 0.00 0.00 28 1017.2
20260506211008 61 320 4.3 8.7 0.00 0.00 0.00 29 1017.3
20260506210508 60 252 4.3 12.2 0.00 0.00 0.00 26 1017.3
20260506210028 61 360 5.2 12.2 0.00 0.00 0.00 28 1017.5
20260506205505 59 334 1.7 11.3 0.00 0.00 0.00 31 1017.5
20260506205015 58 326 4.3 11.3 0.00 0.00 0.00 27 1017.5
20260506204506 59 309 6.1 11.3 0.00 0.00 0.00 29 1017.6
20260506204005 59 6 5.2 9.6 0.00 0.00 0.00 28 1017.7
20260506203504 60 321 5.2 14.8 0.00 0.00 0.00 27 1017.7
20260506203008 60 358 7.0 13.0 0.00 0.00 0.00 29 1017.7
20260506202509 60 278 6.1 14.8 0.00 0.00 0.00 30 1017.8
20260506202006 60 313 6.1 15.6 0.00 0.00 0.00 28 1017.9
20260506201512 60 317 8.7 15.6 0.00 0.00 0.00 27 1018.0
20260506201011 60 334 6.1 12.2 0.00 0.00 0.00 28 1017.9
20260506200506 59 3 4.3 13.0 0.00 0.00 0.00 30 1018.0
20260506200015 59 309 6.1 14.8 0.00 0.00 0.00 30 1018.1
20260506195507 59 350 6.1 14.8 0.00 0.00 0.00 29 1018.2
20260506195004 60 299 5.2 12.2 0.00 0.00 0.00 30 1018.2
20260506194506 58 305 4.3 10.4 0.00 0.00 0.00 30 1018.2
20260506194008 58 296 5.2 13.0 0.00 0.00 0.00 31 1018.2
20260506193505 60 26 6.1 14.8 0.00 0.00 0.00 29 1018.2
20260506193009 60 325 5.2 14.8 0.00 0.00 0.00 32 1018.2
20260506192504 59 302 6.1 11.3 0.00 0.00 0.00 33 1018.4
20260506192006 59 340 5.2 10.4 0.00 0.00 0.00 33 1018.3
20260506191514 58 317 3.5 13.9 0.00 0.00 0.00 31 1018.3
20260506191005 58 326 3.5 13.9 0.00 0.00 0.00 31 1018.3
20260506190503 58 23 5.2 12.2 0.00 0.00 0.00 30 1018.3
20260506190019 58 260 4.3 13.9 0.00 0.00 0.00 31 1018.3
20260506185511 58 296 8.7 18.2 0.00 0.00 0.00 1018.5
20260506185008 58 1 2.6 18.2 0.00 0.00 0.00 1018.4
20260506184518 58 17 7.0 18.2 0.00 0.00 0.00 1018.6
20260506184008 58 328 5.2 13.0 0.00 0.00 0.00 32 1018.6
20260506183509 59 5 7.0 16.5 0.00 0.00 0.00 32 1018.7
20260506183019 58 329 8.7 16.5 0.00 0.00 0.00 33 1018.7
20260506182504 57 316 4.3 12.2 0.00 0.00 0.00 31 1018.7
20260506182004 57 330 5.2 8.7 0.00 0.00 0.00 31 1018.7
20260506181516 56 295 3.5 9.6 0.00 0.00 0.00 33 1018.7
20260506181006 56 325 3.5 9.6 0.00 0.00 0.00 34 1018.8
20260506180505 55 303 4.3 10.4 0.00 0.00 0.00 33 1018.8
20260506180016 55 313 6.1 13.9 0.00 0.00 0.00 33 1018.9
20260506175505 56 327 5.2 13.9 0.00 0.00 0.00 33 1018.9
20260506175007 57 16 5.2 11.3 0.00 0.00 0.00 34 1019.0
20260506174507 57 6 5.2 13.0 0.00 0.00 0.00 32 1018.9
20260506174007 57 27 7.0 13.0 0.00 0.00 0.00 32 1019.1
20260506173504 57 318 7.0 13.0 0.00 0.00 0.00 34 1019.1
20260506173024 57 18 7.0 13.0 0.00 0.00 0.00 38 1019.2
20260506172509 56 326 2.6 13.0 0.00 0.00 0.00 36 1019.2
20260506172003 55 3 7.0 13.0 0.00 0.00 0.00 36 1019.4
20260506171508 55 29 3.5 13.0 0.00 0.00 0.00 37 1019.4
20260506171004 55 321 5.2 13.0 0.00 0.00 0.00 33 1019.6
20260506170504 56 297 6.1 13.0 0.00 0.00 0.00 37 1019.6
20260506170013 55 14 2.6 9.6 0.00 0.00 0.00 37 1019.5
20260506165506 54 1 2.6 11.3 0.00 0.00 0.00 35 1019.7
20260506165006 54 336 5.2 14.8 0.00 0.00 0.00 36 1019.8
20260506164516 54 338 4.3 14.8 0.00 0.00 0.00 33 1019.7
20260506164008 54 308 7.0 13.9 0.00 0.00 0.00 33 1019.8
20260506163507 54 28 6.1 12.2 0.00 0.00 0.00 38 1019.8
20260506163024 54 311 6.1 10.4 0.00 0.00 0.00 35 1019.8
20260506162503 54 333 3.5 11.3 0.00 0.00 0.00 35 1019.8
20260506162010 55 4 5.2 11.3 0.00 0.00 0.00 35 1019.8
20260506161515 55 26 3.5 10.4 0.00 0.00 0.00 37 1019.6
20260506161007 54 28 6.1 10.4 0.00 0.00 0.00 35 1019.6
20260506160508 54 341 5.2 13.9 0.00 0.00 0.00 35 1019.6
20260506160015 54 33 6.1 13.9 0.00 0.00 0.00 37 1019.8
20260506155509 53 321 3.5 8.7 0.00 0.00 0.00 37 1019.7
20260506155003 53 304 3.5 10.4 0.00 0.00 0.00 37 1019.6
20260506154512 53 315 6.1 10.4 0.00 0.00 0.00 36 1019.6
20260506154008 54 347 4.3 11.3 0.00 0.00 0.00 39 1019.6
20260506153508 54 38 3.5 11.3 0.00 0.00 0.00 36 1019.6
20260506153018 55 338 4.3 7.8 0.00 0.00 0.00 38 1019.6
20260506152507 54 34 3.5 7.8 0.00 0.00 0.00 35 1019.6
20260506152007 54 304 3.5 10.4 0.00 0.00 0.00 35 1019.7
20260506151525 54 32 6.1 10.4 0.00 0.00 0.00 36 1019.7
20260506151007 53 61 4.3 11.3 0.00 0.00 0.00 35 1019.7
20260506150505 53 17 3.5 11.3 0.00 0.00 0.00 37 1019.7
20260506150022 53 17 4.3 9.6 0.00 0.00 0.00 38 1019.8
20260506145508 53 23 5.2 9.6 0.00 0.00 0.00 37 1019.7
20260506145004 53 26 4.3 9.6 0.00 0.00 0.00 41 1019.7
20260506144510 53 19 5.2 9.6 0.00 0.00 0.00 40 1019.8
20260506144004 52 350 2.6 7.0 0.00 0.00 0.00 40 1019.8
20260506143505 52 49 2.6 7.0 0.00 0.00 0.00 44 1019.8
20260506143016 51 305 2.6 7.0 0.00 0.00 0.00 42 1019.8
20260506142507 51 315 2.6 7.0 0.00 0.00 0.00 44 1019.7
20260506142007 50 310 2.6 7.0 0.00 0.00 0.00 40 1019.7
20260506141520 50 296 2.6 7.0 0.00 0.00 0.00 40 1019.6
20260506141011 50 325 2.6 4.3 0.00 0.00 0.00 46 1019.6
20260506140509 50 272 1.7 6.1 0.00 0.00 0.00 44 1019.6
20260506140016 49 334 2.6 6.1 0.00 0.00 0.00 45 1019.6
20260506135506 49 298 0.9 4.3 0.00 0.00 0.00 48 1019.5
20260506135006 49 308 0.9 5.2 0.00 0.00 0.00 48 1019.4
20260506134512 48 352 2.6 5.2 0.00 0.00 0.00 49 1019.4
20260506134005 48 331 1.7 3.5 0.00 0.00 0.00 49 1019.4
20260506133506 48 311 1.7 4.3 0.00 0.00 0.00 49 1019.3
20260506133016 47 319 2.6 4.3 0.00 0.00 0.00 48 1019.3
20260506132506 47 327 1.7 4.3 0.00 0.00 0.00 52 1019.2
20260506132013 46 321 0.9 3.5 0.00 0.00 0.00 54 1019.1
20260506131519 45 356 1.7 4.3 0.00 0.00 0.00 54 1019.1
20260506131008 45 322 2.6 4.3 0.00 0.00 0.00 54 1019.0
20260506130504 45 324 1.7 3.5 0.00 0.00 0.00 55 1019.0
20260506130026 44 325 1.7 4.3 0.00 0.00 0.00 54 1018.9
20260506125509 44 7 1.7 5.2 0.00 0.00 0.00 55 1018.9
20260506125011 44 5 1.7 5.2 0.00 0.00 0.00 54 1018.9
20260506124527 43 319 0.9 3.5 0.00 0.00 0.00 55 1018.8
20260506124007 43 325 1.7 3.5 0.00 0.00 0.00 55 1018.6
20260506123511 43 320 0.9 3.5 0.00 0.00 0.00 56 1018.5
20260506123031 43 309 1.7 3.5 0.00 0.00 0.00 56 1018.5
20260506122504 42 311 0.9 2.6 0.00 0.00 0.00 56 1018.3
20260506122006 42 311 0.9 2.6 0.00 0.00 0.00 57 1018.2
20260506121518 42 313 0.9 2.6 0.00 0.00 0.00 56 1018.2
20260506121006 41 313 0.9 2.6 0.00 0.00 0.00 56 1018.1
20260506120508 41 313 0.9 2.6 0.00 0.00 0.00 57 1018.1
20260506120020 40 313 0.9 2.6 0.00 0.00 0.00 58 1018.0
20260506115507 40 315 0.9 2.6 0.00 0.00 0.00 58 1018.0
20260506115008 40 321 0.9 1.7 0.00 0.00 0.00 57 1018.0
20260506114516 40 321 0.9 1.7 0.00 0.00 0.00 57 1017.8
20260506114005 40 321 0.9 1.7 0.00 0.00 0.00 56 1017.8
20260506113504 40 321 0.9 1.7 0.00 0.00 0.00 56 1017.8
20260506113011 40 321 0.9 1.7 0.00 0.00 0.00 56 1017.8
20260506112508 40 321 0.0 1.7 0.00 0.00 0.00 56 1017.7
20260506112006 40 321 0.9 1.7 0.00 0.00 0.00 56 1017.7
20260506111513 40 321 0.9 1.7 0.00 0.00 0.00 56 1017.7
20260506111003 41 321 0.9 1.7 0.00 0.00 0.00 54 1017.7
20260506110504 41 321 0.9 1.7 0.00 0.00 0.00 54 1017.6
20260506110008 41 321 0.9 1.7 0.00 0.00 0.00 53 1017.5
20260506105509 41 321 0.9 1.7 0.00 0.00 0.00 53 1017.6
20260506105004 41 322 0.9 1.7 0.00 0.00 0.00 53 1017.6
20260506104521 41 322 0.0 1.7 0.00 0.00 0.00 52 1017.6
20260506104007 42 322 0.0 1.7 0.00 0.00 0.00 51 1017.6
20260506103505 42 323 0.9 1.7 0.00 0.00 0.00 51 1017.6
20260506103013 42 323 0.0 1.7 0.00 0.00 0.00 51 1017.5
20260506102505 42 323 0.9 2.6 0.00 0.00 0.00 50 1017.4
20260506102003 42 325 0.9 2.6 0.00 0.00 0.00 50 1017.4
20260506101513 42 325 0.9 2.6 0.00 0.00 0.00 50 1017.3
20260506101005 43 325 0.9 2.6 0.00 0.00 0.00 50 1017.3
20260506100503 43 325 0.9 2.6 0.00 0.00 0.00 50 1017.3
20260506100017 43 321 0.0 2.6 0.00 0.00 0.00 50 1017.3
20260506095504 43 320 0.0 2.6 0.00 0.00 0.00 50 1017.2
20260506095008 43 321 0.9 1.7 0.00 0.00 0.00 49 1017.1
20260506094528 43 321 0.9 1.7 0.00 0.00 0.00 48 1017.0
20260506094005 44 321 0.9 1.7 0.00 0.00 0.00 48 1017.0